Home > Time Zones > World Clock > Weather > Serbia > Niš > Past weeks

Flag for Serbia Weather past 2 weeks in Niš, Serbia

Now
39 °F

Passing clouds.


Feels Like: 32 °F
Forecast: 37 / 46 °F
Wind: 12 mph from Northwest

Location: Nis Airport

Current Time: Oct 26, 2014 at 1:02:21 AM

Latest Report: Oct 26, 2014 at 12:30 AM


Visibility: N/A

Pressure: 30.24 "Hg

Humidity: 70%

Dew point: 30 °F

Location of NišLocation

Historic Weather in Niš — Graph

°F

Niš temperature yesterday

Maximum temperature yesterday: 46 °F (at 2:00 PM)
Minimum temperature yesterday: 39 °F (at 11:00 AM)
Average temperature yesterday: 42 °F

Past Weeks' High & Low Weather Summary

 TemperatureHumidityPressure
High79 °F (Oct 13, 4:00 PM)100% (Oct 11, 12:30 AM)30.39 "Hg (Oct 11, 12:30 AM)
Low34 °F (Oct 24, 6:30 AM)40% (Oct 19, 3:30 PM)29.56 "Hg (Oct 22, 12:30 PM)
Average56 °F83%30.00 "Hg
* Reported Midnight between Oct 10 and Oct 11 — Midnight between Oct 25 and Oct 26, Niš, Weather by CustomWeather, © 2014

Note: Actual official high and low records may vary slightly from our data, if they occured in-between our weather recording intervals... More about our weather records

Advertising

Niš weather history for previous 24 hours

 ConditionsComfort  
Time TempWeatherWind HumidityBarometerVisibility
12:00 AM
Oct 26
39 °FPassing clouds.12 mph70%30.24 "HgN/A
11:30 PM
Oct 25
39 °FPassing clouds.10 mph70%30.24 "HgN/A
11:00 PM41 °FPassing clouds.6 mph61%30.24 "HgN/A
10:30 PM39 °FPassing clouds.1 mph65%30.24 "HgN/A
10:00 PM39 °FPassing clouds.3 mph70%30.24 "HgN/A
9:30 PM39 °FPassing clouds.1 mph70%30.24 "HgN/A
9:00 PM41 °FPassing clouds.6 mph61%30.24 "HgN/A
8:30 PM41 °FPassing clouds.3 mph66%30.24 "HgN/A
8:00 PM41 °FPassing clouds.7 mph66%30.24 "HgN/A
7:30 PM41 °FPassing clouds.7 mph66%30.24 "HgN/A
7:00 PM41 °FPassing clouds.7 mph66%30.24 "HgN/A
6:30 PM39 °FScattered clouds.9 mph70%30.21 "HgN/A
6:00 PM41 °FScattered clouds.9 mph66%30.21 "HgN/A
5:30 PM41 °FScattered clouds.3 mph70%30.21 "HgN/A
5:00 PM41 °FScattered clouds.6 mph70%30.21 "HgN/A
4:30 PM43 °FScattered clouds.7 mph66%30.18 "HgN/A
4:00 PM43 °FScattered clouds.6 mph66%30.18 "HgN/A
3:30 PM45 °FScattered clouds.7 mph61%30.18 "HgN/A
3:00 PM46 °FScattered clouds.9 mph57%30.18 "HgN/A
2:30 PM46 °FScattered clouds.8 mph62%30.15 "HgN/A
2:00 PM46 °FScattered clouds.2 mph66%30.15 "HgN/A
1:30 PM45 °FScattered clouds.1 mph66%30.18 "HgN/A
1:00 PM43 °FScattered clouds.14 mph71%30.18 "HgN/A
12:30 PM43 °FPartly sunny.15 mph71%30.18 "HgN/A
12:00 PM41 °FPartly sunny.10 mph76%30.18 "HgN/A
11:30 AM39 °FLight rain. Broken clouds.7 mph81%30.18 "Hg5 mi
11:00 AM39 °FLight rain. Broken clouds.6 mph81%30.18 "Hg5 mi
10:30 AM41 °FLight rain. Broken clouds.5 mph76%30.18 "Hg5 mi
10:00 AM41 °FBroken clouds.2 mph70%30.15 "HgN/A
9:30 AM43 °FBroken clouds.3 mph66%30.15 "HgN/A
9:00 AM43 °FPartly sunny.6 mph66%30.15 "HgN/A
8:30 AM43 °FPartly sunny.7 mph71%30.12 "HgN/A
8:00 AM41 °FPartly sunny.8 mph76%30.12 "HgN/A
7:30 AM41 °FPassing clouds.12 mph76%30.12 "HgN/A
7:00 AM41 °FPassing clouds.8 mph76%30.09 "HgN/A
6:30 AM41 °FPassing clouds.9 mph76%30.09 "HgN/A
6:00 AM41 °FPassing clouds.10 mph76%30.07 "HgN/A
5:30 AM41 °FPassing clouds.13 mph76%30.07 "HgN/A
5:00 AM41 °FPassing clouds.10 mph76%30.07 "HgN/A
4:30 AM41 °FPassing clouds.9 mph76%30.07 "HgN/A
4:00 AM43 °FPassing clouds.6 mph71%30.07 "HgN/A
3:30 AM43 °FPassing clouds.8 mph71%30.07 "HgN/A
3:00 AM43 °FPassing clouds.10 mph76%30.07 "HgN/A
2:30 AM43 °FPassing clouds.10 mph76%30.07 "HgN/A
2:00 AM43 °FPassing clouds.5 mph76%30.04 "HgN/A
1:30 AM43 °FPassing clouds.6 mph76%30.04 "HgN/A
1:00 AM43 °FPassing clouds.2 mph81%30.04 "HgN/A
Weather by CustomWeather, © 2014

See weather overviewHow to use our weather pages